Regional Weather Roundup
Issued by NWS

Home | Current Version | Previous Version | Text Only | Print | Product List | Glossary Off
Versions: 1 2 3 4 5 6 7 8 9 10 11 12 13 14 15 16 17 18 19 20 21 22 23 24 25 26 27 28 29 30 31 32 33 34 35 36 37 38 39 40 41 42 43 44 45 46 47 48 49 50

000
ASUS45 KCYS 011910
RWRWY

WYOMING REGIONAL WEATHER ROUNDUP
NATIONAL WEATHER SERVICE CHEYENNE WY
100 PM MDT FRI AUG 01 2014

NOTE:  "FAIR" INDICATES FEW OR NO CLOUDS BELOW 12,000 FEET
WITH NO SIGNIFICANT WEATHER AND/OR OBSTRUCTIONS TO VISIBILITY.

WYZ001-012000-
YELLOWSTONE NATIONAL PARK

CITY           SKY/WX    TMP DP  RH WIND       PRES   REMARKS
LK YELLOWSTONE   N/A     72  37  28 E5        30.44F
W YELLOWSTONE  NOT AVBL

$$
WYZ002>013-054>058-071-098>099-012000-
NORTHERN WYOMING

CITY           SKY/WX    TMP DP  RH WIND       PRES   REMARKS
JACKSON        SUNNY     73  45  35 CALM      30.32F
CODY           SUNNY    N/A N/A N/A N9        30.23F
GREYBULL       SUNNY     88  37  16 VRB3      30.14F
WORLAND        SUNNY     85  39  19 W6        30.16F
SHERIDAN       SUNNY     90  39  16 VRB5      30.16F
BUFFALO        MOSUNNY   87  35  15 N13G20    30.23F
GILLETTE       SUNNY     88  39  17 N6        30.17F
HULETT         FAIR      86  41  20 MISG      30.17
NEWCASTLE      FAIR      84  36  17 W3        30.17

$$
WYZ014>020-022>026-101>103-012000-
CENTRAL WYOMING

CITY           SKY/WX    TMP DP  RH WIND       PRES   REMARKS
BIG PINEY      MOSUNNY   76  34  21 SW7       30.37F
PINEDALE       PTCLDY    73  32  21 NW6       30.37F
DUBOIS         FAIR      77  32  19 SE8       30.36F
LANDER         MOSUNNY   83  36  18 N7        30.27S
RIVERTON       SUNNY     81  35  19 CALM      30.26F
CASPER         SUNNY     86  29  12 E10       30.23F
DOUGLAS        MOSUNNY   86  37  17 S8G16     30.23F

$$
WYZ021-027>030-104>119-012000-
SOUTHERN WYOMING

CITY           SKY/WX    TMP DP  RH WIND       PRES   REMARKS
EVANSTON       MOSUNNY   77  28  16 NE10      30.35F
KEMMERER       CLEAR    N/A N/A N/A SE6       30.38F
FORT BRIDGER   FAIR      76  35  22 NE7       30.39F
ROCK SPRINGS   MOSUNNY   81  29  15 E9        30.33F
DIXON          FAIR      81  27  13 SW7       30.31S
RAWLINS        SUNNY     80  26  13 E10G17    30.33F
SARATOGA       FAIR      73  32  21 NE5       30.34F
LARAMIE        SUNNY     71  38  29 SE12G22   30.37F
CHEYENNE       MOSUNNY   76  41  28 SW9G21    30.32S
TORRINGTON     SUNNY     87  38  17 S9        30.19S
PINE BLUFFS    FAIR      79  43  27 S6        30.27F

$$



USA.gov is the U.S. government's official web portal to all federal, state and local government web resources and services.